WAYLND-WX Weather Reports


time (UTC)temp
F
wind
direction
speed
knots
gust
knots
rain 1hr
in
rain 24hr
in
rain mn
in
humidity
%
barometer
mb
20260906121540 57 55 6.1 0.0 0.00 0.00 0.00 93 991.2
20260906120038 56 54 6.1 0.0 0.00 0.00 0.00 93 991.2
20260906114542 55 53 5.2 0.0 0.00 0.00 0.00 90 989.6
20260906113041 55 46 5.2 0.0 0.00 0.00 0.00 87 991.0
20260906111541 56 58 4.3 0.0 0.00 0.00 0.00 87 991.0
20260906110043 56 58 4.3 0.0 0.00 0.00 0.00 87 991.0
20260906104541 56 53 4.3 0.0 0.00 0.00 0.00 82 990.2
20260906103044 56 50 4.3 0.0 0.00 0.00 0.00 85 991.0
20260906101538 56 50 4.3 0.0 0.00 0.00 0.00 85 990.9
20260906100047 57 53 4.3 0.0 0.00 0.00 0.00 85 990.9
20260906094543 57 54 4.3 0.0 0.00 0.00 0.00 86 990.2
20260906093044 57 48 4.3 0.0 0.00 0.00 0.00 84 990.9
20260906091541 57 53 4.3 0.0 0.00 0.00 0.00 84 990.9
20260906090046 57 57 5.2 0.0 0.00 0.00 0.00 84 990.9
20260906084543 58 58 5.2 0.0 0.00 0.00 0.00 85 989.8
20260906083041 58 57 5.2 0.0 0.00 0.00 0.00 79 990.3
20260906081539 59 59 6.1 0.0 0.00 0.00 0.00 77 990.1
20260906080100 59 61 5.2 0.0 0.00 0.00 0.00 77 990.1
20260906074541 60 61 5.2 0.0 0.00 0.00 0.00 79 989.2
20260906073041 60 62 5.2 0.0 0.00 0.00 0.00 79 989.2
20260906071543 60 66 5.2 0.0 0.00 0.00 0.00 79 989.2
20260906070044 61 68 5.2 0.0 0.00 0.00 0.00 79 989.2
20260906064554 61 71 5.2 0.0 0.00 0.00 0.00 78 988.8
20260906063048 61 68 5.2 0.0 0.00 0.00 0.00 74 989.2
20260906061541 62 68 5.2 0.0 0.00 0.00 0.00 74 989.2
20260906060046 62 69 5.2 0.0 0.00 0.00 0.00 74 989.2
20260906054542 62 72 5.2 0.0 0.00 0.00 0.00 72 989.4
20260906053039 62 68 5.2 0.0 0.00 0.00 0.00 70 989.1
20260906051542 63 70 4.3 0.0 0.00 0.00 0.00 70 989.1
20260906050045 63 70 4.3 0.0 0.00 0.00 0.00 70 989.1
20260906044542 64 71 5.2 0.0 0.00 0.00 0.00 73 989.0
20260906043047 64 65 5.2 0.0 0.00 0.00 0.00 70 988.8
20260906041541 64 63 5.2 0.0 0.00 0.00 0.00 70 988.8
20260906040038 65 62 5.2 0.0 0.00 0.00 0.00 70 988.8
20260906034537 65 64 5.2 0.0 0.00 0.00 0.00 72 988.7
20260906033045 66 63 5.2 0.0 0.00 0.00 0.00 75 989.1
20260906031541 66 62 6.1 0.0 0.00 0.00 0.00 75 989.1
20260906030043 67 61 5.2 0.0 0.00 0.00 0.00 75 989.1
20260906024541 67 56 5.2 0.0 0.00 0.00 0.00 71 987.8
20260906023038 68 58 6.1 0.0 0.00 0.00 0.00 73 988.2
20260906021538 68 58 6.1 0.0 0.00 0.00 0.00 73 988.2
20260906020037 69 57 6.1 0.0 0.00 0.00 0.00 73 988.2
20260906015049 69 53 6.1 0.0 0.00 0.00 0.00 70 987.5
20260906013040 69 49 5.2 0.0 0.00 0.00 0.00 70 987.5
20260906011540 69 55 7.0 0.0 0.00 0.00 0.00 70 987.5
20260906010051 70 54 7.0 0.0 0.00 0.00 0.00 70 987.5
20260906004539 70 56 5.2 0.0 0.00 0.00 0.00 74 987.5
20260906003047 70 38 4.3 0.0 0.00 0.00 0.00 71 987.5
20260906001539 71 38 4.3 0.0 0.00 0.00 0.00 71 987.5
20260906000048 72 33 4.3 0.0 0.00 0.00 0.00 71 987.5
20260905234544 73 34 4.3 0.0 0.00 0.00 0.00 65 987.5
20260905233041 73 43 4.3 0.0 0.00 0.00 0.00 65 987.5
20260905231544 74 48 5.2 0.0 0.00 0.00 0.00 65 987.5
20260905230044 75 52 5.2 0.0 0.00 0.00 0.00 65 987.5
20260905224544 76 53 6.1 0.0 0.00 0.00 0.00 70 987.2
20260905223040 76 54 7.0 0.0 0.00 0.00 0.00 70 987.6
20260905221540 76 55 6.1 0.0 0.00 0.00 0.00 70 987.6
20260905220040 76 55 6.1 0.0 0.00 0.00 0.00 70 987.6
20260905214544 76 58 7.0 0.0 0.00 0.00 0.00 71 987.5
20260905213045 76 68 6.1 0.0 0.00 0.00 0.00 73 987.9
20260905211541 74 61 5.2 0.0 0.00 0.00 0.00 73 987.9
20260905210046 74 60 7.0 0.0 0.00 0.00 0.00 73 987.9
20260905204544 74 59 7.0 0.0 0.00 0.00 0.00 79 986.9
20260905203044 74 56 7.8 0.0 0.00 0.00 0.00 80 987.3
20260905201543 74 54 7.0 0.0 0.00 0.00 0.00 80 987.2
20260905200050 73 49 7.0 0.0 0.00 0.00 0.00 80 987.2
20260905194544 73 47 7.0 0.0 0.00 0.00 0.00 77 987.4
20260905193044 73 46 7.8 0.0 0.00 0.00 0.00 77 987.4
20260905191540 73 42 5.2 0.0 0.00 0.00 0.00 77 987.4
20260905190053 73 49 5.2 0.0 0.00 0.00 0.00 77 987.4
20260905184544 73 57 5.2 0.0 0.00 0.00 0.00 81 988.2
20260905183044 74 56 6.1 0.0 0.00 0.00 0.00 79 988.1
20260905181543 74 50 5.2 0.0 0.00 0.00 0.00 79 988.1
20260905180046 74 48 5.2 0.0 0.00 0.00 0.00 79 988.1
20260905174544 74 56 6.1 0.0 0.00 0.00 0.00 79 988.4
20260905173045 73 66 6.1 0.0 0.00 0.00 0.00 79 987.6
20260905171544 75 74 5.2 0.0 0.00 0.00 0.00 79 987.7
20260905170053 74 82 5.2 0.0 0.00 0.00 0.00 79 987.7
20260905164544 74 80 5.2 0.0 0.00 0.00 0.00 85 988.1
20260905163044 75 75 5.2 0.0 0.00 0.00 0.00 81 987.1
20260905161541 74 86 5.2 0.0 0.00 0.00 0.00 81 987.1
20260905160040 74 86 5.2 0.0 0.00 0.00 0.00 81 987.1
20260905154540 73 88 5.2 0.0 0.00 0.00 0.00 86 988.3
20260905153044 72 81 6.1 0.0 0.00 0.00 0.00 86 987.0
20260905151541 72 63 7.0 0.0 0.00 0.00 0.00 86 987.0
20260905150040 71 71 7.0 0.0 0.00 0.00 0.00 86 987.0
20260905144554 71 73 6.1 0.0 0.00 0.00 0.00 89 987.6
20260905143037 71 67 6.1 0.0 0.00 0.00 0.00 87 987.2
20260905141543 72 56 7.0 0.0 0.00 0.00 0.00 87 987.2
20260905140044 71 58 7.0 0.0 0.00 0.00 0.00 87 987.2
20260905134543 71 58 7.0 0.0 0.00 0.00 0.00 95 986.5
20260905133044 71 66 6.1 0.0 0.00 0.00 0.00 95 986.5
20260905131541 70 63 7.0 0.0 0.00 0.00 0.00 95 986.5
20260905130046 69 61 6.1 0.0 0.00 0.00 0.00 95 986.5
20260905124544 70 56 7.0 0.0 0.00 0.00 0.00 97 986.0
20260905123045 69 50 6.1 0.0 0.00 0.00 0.00 97 986.0